Regional Weather Roundup
Issued by NWS Boston, MA

Current Version | Previous Version | Graphics & Text | Print | Product List | Glossary Off
Versions: 1 2 3 4 5 6 7 8 9 10 11 12 13 14 15 16 17 18 19 20 21 22 23 24 25 26 27 28 29 30 31 32 33 34 35 36 37 38 39 40 41 42 43 44 45 46 47 48 49 50
000 ASUS41 KBOX 182210 RWRBOX REGIONAL WEATHER ROUNDUP NATIONAL WEATHER SERVICE BOSTON/NORTON MA 500 PM EST FRI JAN 18 2019 NOTE: "FAIR" INDICATES FEW OR NO CLOUDS BELOW 12,000 FEET WITH NO SIGNIFICANT WEATHER AND/OR OBSTRUCTIONS TO VISIBILITY. MAZALL-182300- EASTERN MASSACHUSETTS CITY SKY/WX TMP DP RH WIND PRES REMARKS BOSTON CLOUDY 40 27 59 SW10 30.03R BEVERLY CLOUDY 36 29 75 S3 30.02R LAWRENCE CLOUDY 37 25 61 SW6 30.03R BEDFORD CLOUDY 38 26 62 SW7 30.01R BLUE HILL N/A 35 27 72 W8 29.99R WCI 29 NORWOOD CLOUDY 41 28 60 W3 30.03R MARSHFIELD FAIR 34 32 93 CALM 30.03R PLYMOUTH MOCLDY 34 28 79 SW5 30.04R WCI 30 TAUNTON CLOUDY 39 30 70 SW3 30.04R NEW BEDFORD MOCLDY 33 32 96 CALM 30.04R $$ MAZALL-182300- CAPE COD AND THE ISLANDS CITY SKY/WX TMP DP RH WIND PRES REMARKS FALMOUTH MOCLDY 34 30 86 CALM 30.03R HYANNIS FAIR 32 28 85 CALM 30.01R CHATHAM CLOUDY 37 33 85 CALM 30.03S PROVINCETOWN FAIR 33 31 92 S3 30.03S NANTUCKET FAIR 37 35 92 N3 30.01F MARTHAS VNYRD CLOUDY 34 34 100 CALM 30.03R FOG $$ MAZALL-182300- CENTRAL AND WESTERN MASSACHUSETTS CITY SKY/WX TMP DP RH WIND PRES REMARKS WORCESTER CLOUDY 33 27 78 W9 29.99R WCI 25 FITCHBURG CLOUDY 36 25 64 W8 30.02R WCI 30 ORANGE CLOUDY 34 24 67 SW5 30.03R WCI 30 SPRINGFIELD MOCLDY 35 26 67 S3 30.03R WESTFIELD CLOUDY 35 25 66 S3 30.03R NORTH ADAMS CLOUDY 33 27 78 W8 30.01R WCI 26 PITTSFIELD CLOUDY 32 25 75 SW7 29.97F WCI 26 $$ RIZALL-182300- RHODE ISLAND CITY SKY/WX TMP DP RH WIND PRES REMARKS PROVIDENCE MOCLDY 37 32 82 S3 30.04R NEWPORT CLOUDY 36 32 85 CALM 30.03R BLOCK ISLAND CLOUDY 37 33 85 CALM 30.05 SMITHFIELD CLOUDY 37 29 72 W9 30.02R WCI 30 WESTERLY CLOUDY 41 35 79 CALM 30.05R $$ CTZALL-182300- CONNECTICUT CITY SKY/WX TMP DP RH WIND PRES REMARKS BRADLEY INTL MOCLDY 37 27 67 SW5 30.04R HARTFORD CLOUDY 39 28 64 SW3 30.06R BRIDGEPORT CLOUDY 37 32 82 SW6 30.07R DANBURY CLOUDY 35 28 75 W9 30.05R WCI 28 GROTON FAIR 37 33 85 W7 30.05R WCI 32 NEW HAVEN MOCLDY 37 33 85 SW5 30.07R CHESTER FAIR 36 32 87 CALM 30.04R MERIDEN CLOUDY 38 28 67 CALM 30.05R WILLIMANTIC CLOUDY 36 31 82 W3 30.06R OXFORD CLOUDY 35 29 78 VRB6 30.03R WCI 30 $$ MEZ002-015-021-024-NHZ003-005-008-011-012-014-VTZ005-008-182300- NORTHERN NEW ENGLAND CITY SKY/WX TMP DP RH WIND PRES REMARKS PORTLAND ME CLOUDY 31 21 66 CALM 30.01S BANGOR ME LGT SNOW 30 28 92 S6 29.98S FOG WCI 24 CONCORD NH CLOUDY 28 21 75 W5 30.01R WCI 23 MANCHESTER NH CLOUDY 33 24 69 CALM 30.00R NASHUA NH LGT RAIN 34 27 75 CALM 30.02R PORTSMOUTH NH MOCLDY 34 23 63 CALM 29.99S JAFFREY NH CLOUDY 32 27 81 SW5 29.99R WCI 27 KEENE NH CLOUDY 31 24 75 SW3 30.03R BURLINGTON VT LGT SNOW 30 24 78 S7 29.98R WCI 23 MT. WASHINGTON SNOW 10 10 100 W60G67 N/A VSB 0 WCI -18 $$ NYZ052-076-182300- EASTERN NEW YORK CITY SKY/WX TMP DP RH WIND PRES REMARKS ALBANY FLURRIES 34 27 75 S3 30.04S NEW YORK CITY CLOUDY 39 31 72 W9 30.07S $$ ANZALL-182300- MARINE OBSERVATIONS STATION/POSITION TIME TEMP WIND PRES VSBY WAVE AIR SEA DIR/SP/G HT/PER (UTC) (F) (DEG/KT/KT) (MB) (MI) (FT/S) BOSTON BUOY 2150 37 42 160/ 8/ 10 1016.5R 2/ 5 BUZZARDS BAY 2100 36 60/ 2/ 3 1017.2F NANTUCKET SOUND 2150 36 36 340/ 4/ 4 1016.9S 1/ 6 MASS BAY-STELLWA 2104 37 42 180/ 12/ 14 1015.2F 1 7/8 2/ 5 ISLE OF SHOALS 2200 37 200/ 13/ 14 1016.0R S OF BLOCK IS 2200 44 N/A 4/ 6 $$ ......................KEY......................... SKY/WX - SKY CONDITION/PRESENT WEATHER TMP - TEMPERATURE IN FAHRENHEIT DWPT - DEWPOINT IN FAHRENHEIT RH - RELATIVE HUMIDITY IN PERCENT WIND - DIRECTION AND SPEED IN MPH PRES - MEAN SEA LEVEL PRESSURE IN INCHES OF HG WCI - WIND CHILL INDEX VSB - VISIBILITY IN MILES HX - HEAT INDEX TC - TEMPERATURE IN CELSIUS VRB - VARIABLE WIND DIRECTION N/A - NOT AVAILABLE

USA.gov is the U.S. government's official web portal to all federal, state and local government web resources and services.